H1 CPF 2 NER 2024 12 8 9 343 01 glonass131 H2 1301901 9131 39155 2024 12 8 0 0 0 2024 12 11 23 45 0 900 1 1 0 0 0 1 H9 10 0 60652 0.00000 0 -15339218.102 5319124.365 19689634.156 10 0 60652 900.00000 0 -17609605.370 4890534.794 17800564.042 10 0 60652 1800.00000 0 -19655995.737 4671639.625 15565932.544 10 0 60652 2700.00000 0 -21421451.665 4632477.962 13028830.159 10 0 60652 3600.00000 0 -22857795.905 4733461.992 10238316.024 10 0 60652 4500.00000 0 -23927511.824 4927246.751 7248482.794 10 0 60652 5400.00000 0 -24605218.003 5160943.011 4117414.540 10 0 60652 6300.00000 0 -24878652.680 5378580.103 906057.181 10 0 60652 7200.00000 0 -24749123.920 5523713.868 -2322976.444 10 0 60652 8100.00000 0 -24231404.047 5542067.672 -5506642.649 10 0 60652 9000.00000 0 -23353070.757 5384092.078 -8582718.352 10 0 60652 9900.00000 0 -22153321.472 5007331.554 -11491041.192 10 0 60652 10800.00000 0 -20681310.639 4378494.445 -14174711.549 10 0 60652 11700.00000 0 -18994080.710 3475135.039 -16581230.301 10 0 60652 12600.00000 0 -17154175.553 2286873.397 -18663547.584 10 0 60652 13500.00000 0 -15227038.889 816098.780 -20380999.913 10 0 60652 14400.00000 0 -13278309.675 -921874.764 -21700115.834 10 0 60652 15300.00000 0 -11371130.534 -2899208.154 -22595273.379 10 0 60652 16200.00000 0 -9563584.280 -5076475.573 -23049196.287 10 0 60652 17100.00000 0 -7906367.421 -7404101.244 -23053279.749 10 0 60652 18000.00000 0 -6440798.644 -9824233.154 -22607740.303 10 0 60652 18900.00000 0 -5197245.164 -12272973.741 -21721588.488 10 0 60652 19800.00000 0 -4194031.252 -14682872.697 -20412426.588 10 0 60652 20700.00000 0 -3436872.223 -16985576.353 -18706077.453 10 0 60652 21600.00000 0 -2918854.358 -19114522.157 -16636053.696 10 0 60652 22500.00000 0 -2620958.002 -21007565.562 -14242879.588 10 0 60652 23400.00000 0 -2513098.128 -22609430.129 -11573280.682 10 0 60652 24300.00000 0 -2555635.076 -23873879.859 -8679258.453 10 0 60652 25200.00000 0 -2701288.909 -24765524.941 -5617069.109 10 0 60652 26100.00000 0 -2897374.429 -25261187.953 -2446127.212 10 0 60652 27000.00000 0 -3088261.253 -25350776.162 772144.317 10 0 60652 27900.00000 0 -3217954.675 -25037626.323 3975495.663 10 0 60652 28800.00000 0 -3232688.832 -24338310.120 7102040.787 10 0 60652 29700.00000 0 -3083423.824 -23281910.578 10091435.356 10 0 60652 30600.00000 0 -2728143.092 -21908801.109 12886020.683 10 0 60652 31500.00000 0 -2133855.964 -20268978.873 15431913.390 10 0 60652 32400.00000 0 -1278222.714 -18420021.791 17680021.844 10 0 60652 33300.00000 0 -150735.005 -16424753.315 19586971.893 10 0 60652 34200.00000 0 1246597.336 -14348710.540 21115926.116 10 0 60652 35100.00000 0 2899082.348 -12257518.723 22237282.606 10 0 60652 36000.00000 0 4779712.986 -10214278.880 22929241.221 10 0 60652 36900.00000 0 6850052.053 -8277074.626 23178227.217 10 0 60652 37800.00000 0 9061601.149 -6496699.592 22979164.237 10 0 60652 38700.00000 0 11357600.111 -4914698.309 22335590.864 10 0 60652 39600.00000 0 13675185.756 -3561801.055 21259617.149 10 0 60652 40500.00000 0 15947823.687 -2456817.719 19771720.075 10 0 60652 41400.00000 0 18107915.015 -1606037.403 17900379.423 10 0 60652 42300.00000 0 20089471.745 -1003160.150 15681558.385 10 0 60652 43200.00000 0 21830750.578 -629765.415 13158036.128 10 0 60652 44100.00000 0 23276735.387 -456299.551 10378602.639 10 0 60652 45000.00000 0 24381363.652 -443542.613 7397129.243 10 0 60652 45900.00000 0 25109401.764 -544494.069 4271531.311 10 0 60652 46800.00000 0 25437887.988 -706598.525 1062642.472 10 0 60652 47700.00000 0 25357079.524 -874217.168 -2166977.622 10 0 60652 48600.00000 0 24870860.886 -991239.170 -5354277.886 10 0 60652 49500.00000 0 23996593.849 -1003720.408 -8436967.055 10 0 60652 50400.00000 0 22764413.329 -862434.815 -11354754.909 10 0 60652 51300.00000 0 21215997.838 -525227.004 -14050556.708 10 0 60652 52200.00000 0 19402866.217 40937.028 -16471634.660 10 0 60652 53100.00000 0 17384273.237 858311.199 -18570651.556 10 0 60652 54000.00000 0 15224794.230 1937175.670 -20306613.862 10 0 60652 54900.00000 0 12991702.401 3275160.773 -21645684.240 10 0 60652 55800.00000 0 10752251.293 4857118.374 -22561846.615 10 0 60652 56700.00000 0 8570978.512 6655546.487 -23037410.572 10 0 60652 57600.00000 0 6507145.337 8631548.949 -23063345.593 10 0 60652 58500.00000 0 4612420.309 10736288.757 -22639439.629 10 0 60652 59400.00000 0 2928903.602 12912872.611 -21774280.359 10 0 60652 60300.00000 0 1487573.735 15098586.080 -20485061.331 10 0 60652 61200.00000 0 307219.477 17227384.172 -18797218.778 10 0 60652 62100.00000 0 -606101.308 19232531.867 -16743908.252 10 0 60652 63000.00000 0 -1259056.777 21049283.488 -14365333.266 10 0 60652 63900.00000 0 -1670494.283 22617488.749 -11707940.860 10 0 60652 64800.00000 0 -1870378.418 23884017.221 -8823501.273 10 0 60652 65700.00000 0 -1898262.119 24804901.161 -5768090.815 10 0 60652 66600.00000 0 -1801358.054 25347109.027 -2600998.527 10 0 60652 67500.00000 0 -1632293.661 25489877.869 616421.822 10 0 60652 68400.00000 0 -1446645.615 25225551.404 3821932.279 10 0 60652 69300.00000 0 -1300357.934 24559891.213 6953601.486 10 0 60652 70200.00000 0 -1247152.003 23511850.197 9950983.744 10 0 60652 71100.00000 0 -1336036.451 22112819.366 12756265.081 10 0 60652 72000.00000 0 -1609020.119 20405380.267 15315355.952 10 0 60652 72900.00000 0 -2099122.666 18441615.138 17578911.580 10 0 60652 73800.00000 0 -2828764.932 16281044.350 19503262.400 10 0 60652 74700.00000 0 -3808605.622 13988275.434 21051238.717 10 0 60652 75600.00000 0 -5036872.852 11630459.222 22192875.527 10 0 60652 76500.00000 0 -6499219.196 9274656.175 22905985.350 10 0 60652 77400.00000 0 -8169107.869 6985219.563 23176588.870 10 0 60652 78300.00000 0 -10008716.391 4821301.521 22999195.306 10 0 60652 79200.00000 0 -11970323.183 2834583.376 22376926.551 10 0 60652 80100.00000 0 -13998122.820 1067323.025 21321481.459 10 0 60652 81000.00000 0 -16030397.901 -449200.229 19852939.050 10 0 60652 81900.00000 0 -18001960.360 -1695778.543 17999402.026 10 0 60652 82800.00000 0 -19846763.063 -2665859.719 15796484.773 10 0 60652 83700.00000 0 -21500574.498 -3365596.878 13286652.938 10 0 60652 84600.00000 0 -22903605.505 -3813359.799 10518424.711 10 0 60652 85500.00000 0 -24002977.668 -4038726.580 7545447.111 10 0 60653 0.00000 0 -24754928.388 -4080996.514 4425463.854 10 0 60653 900.00000 0 -25126658.048 -3987285.830 1219192.344 10 0 60653 1800.00000 0 -25097737.727 -3810286.441 -2010864.118 10 0 60653 2700.00000 0 -24661016.400 -3605783.222 -5201650.489 10 0 60653 3600.00000 0 -23822985.257 -3430036.390 -8290810.693 10 0 60653 4500.00000 0 -22603581.712 -3337142.362 -11217929.920 10 0 60653 5400.00000 0 -21035439.476 -3376487.872 -13925741.412 10 0 60653 6300.00000 0 -19162615.417 -3590408.562 -16361271.558 10 0 60653 7200.00000 0 -17038846.919 -4012154.516 -18476898.319 10 0 60653 8100.00000 0 -14725414.056 -4664251.821 -20231300.186 10 0 60653 9000.00000 0 -12288698.028 -5557331.832 -21590275.483 10 0 60653 9900.00000 0 -9797540.438 -6689479.176 -22527414.982 10 0 60653 10800.00000 0 -7320516.173 -8046126.765 -23024614.437 10 0 60653 11700.00000 0 -4923235.882 -9600502.103 -23072417.342 10 0 60653 12600.00000 0 -2665792.112 -11314605.280 -22670182.215 10 0 60653 13500.00000 0 -600456.230 -13140676.093 -21826072.551 10 0 60653 14400.00000 0 1230278.256 -15023087.026 -20556871.443 10 0 60653 15300.00000 0 2795225.809 -16900580.802 -18887626.485 10 0 60653 16200.00000 0 4075551.010 -18708757.155 -16851133.932 10 0 60653 17100.00000 0 5065282.475 -20382703.397 -14487274.168 10 0 60653 18000.00000 0 5771280.801 -21859657.964 -11842213.280 10 0 60653 18900.00000 0 6212665.929 -23081595.448 -8967487.825 10 0 60653 19800.00000 0 6419731.791 -23997625.617 -5918991.816 10 0 60653 20700.00000 0 6432397.298 -24566107.339 -2755886.450 10 0 60653 21600.00000 0 6298261.540 -24756390.820 460545.883 10 0 60653 22500.00000 0 6070346.918 -24550117.387 3668081.200 10 0 60653 23400.00000 0 5804626.201 -23942024.744 6804744.816 10 0 60653 24300.00000 0 5557437.639 -22940226.066 9809991.556 10 0 60653 25200.00000 0 5382896.198 -21565952.969 12625853.926 10 0 60653 26100.00000 0 5330408.506 -19852774.068 15198037.868 10 0 60653 27000.00000 0 5442394.317 -17845322.017 17476946.981 10 0 60653 27900.00000 0 5752308.527 -15597581.409 19418617.662 10 0 60653 28800.00000 0 6283045.363 -13170807.407 20985549.136 10 0 60653 29700.00000 0 7045790.799 -10631159.453 22147414.301 10 0 60653 30600.00000 0 8039371.232 -8047145.683 22881639.126 10 0 60653 31500.00000 0 9250126.498 -5486981.206 23173840.296 10 0 60653 32400.00000 0 10652314.333 -3015966.905 23018112.946 10 0 60653 33300.00000 0 12209031.975 -693994.896 22417162.432 10 0 60653 34200.00000 0 13873619.586 1426717.852 21382276.340 10 0 60653 35100.00000 0 15591490.397 3303574.952 19933135.477 10 0 60653 36000.00000 0 17302314.576 4905144.655 18097465.013 10 0 60653 36900.00000 0 18942468.568 6212237.868 15910529.874 10 0 60653 37800.00000 0 20447649.744 7218474.087 13414481.289 10 0 60653 38700.00000 0 21755548.201 7930310.026 10657564.502 10 0 60653 39600.00000 0 22808463.841 8366527.913 7693200.781 10 0 60653 40500.00000 0 23555757.915 8557203.249 4578959.874 10 0 60653 41400.00000 0 23956033.986 8542194.142 1375442.034 10 0 60653 42300.00000 0 23978953.748 8369215.242 -1854908.659 10 0 60653 43200.00000 0 23606607.970 8091577.807 -5049035.738 10 0 60653 44100.00000 0 22834381.445 7765692.527 -8144520.999 10 0 60653 45000.00000 0 21671272.400 7448442.771 -11080827.753 10 0 60653 45900.00000 0 20139650.465 7194542.131 -13800509.912 10 0 60653 46800.00000 0 18274461.728 7053991.256 -16250360.619 10 0 60653 47700.00000 0 16121913.729 7069744.931 -18382475.441 10 0 60653 48600.00000 0 13737695.945 7275691.164 -20155207.156 10 0 60653 49500.00000 0 11184811.627 7695030.327 -21533991.826 10 0 60653 50400.00000 0 8531113.651 8339124.696 -22492028.951 10 0 60653 51300.00000 0 5846649.541 9206867.957 -23010802.097 10 0 60653 52200.00000 0 3200928.657 10284601.386 -23080430.131 10 0 60653 53100.00000 0 660227.277 11546579.535 -22699843.151 10 0 60653 54000.00000 0 -1714955.071 12955964.446 -21876781.072 10 0 60653 54900.00000 0 -3872181.914 14466304.792 -20627616.684 10 0 60653 55800.00000 0 -5769014.368 16023435.750 -18977008.607 10 0 60653 56700.00000 0 -7374515.165 17567717.881 -16957392.989 10 0 60653 57600.00000 0 -8670262.239 19036519.378 -14608325.830 10 0 60653 58500.00000 0 -9650832.990 20366836.347 -11975690.615 10 0 60653 59400.00000 0 -10323742.918 21497940.669 -9110788.236 10 0 60653 60300.00000 0 -10708845.168 22373944.527 -6069328.152 10 0 60653 61200.00000 0 -10837219.918 22946174.872 -2910341.242 10 0 60653 62100.00000 0 -10749603.487 23175259.681 304964.101 10 0 60653 63000.00000 0 -10494425.620 23032840.396 3514380.593 10 0 60653 63900.00000 0 -10125539.061 22502840.814 6655893.021 10 0 60653 64800.00000 0 -9699737.528 21582241.294 9668859.542 10 0 60653 65700.00000 0 -9274166.185 20281327.579 12495161.951 10 0 60653 66600.00000 0 -8903732.475 18623404.968 15080304.420 10 0 60653 67500.00000 0 -8638624.552 16643990.227 17374441.601 10 0 60653 68400.00000 0 -8522039.728 14389514.505 19333318.387 10 0 60653 69300.00000 0 -8588216.492 11915590.018 20919105.315 10 0 60653 70200.00000 0 -8860851.247 9284910.564 22101115.370 10 0 60653 71100.00000 0 -9351965.337 6564870.381 22856389.890 10 0 60653 72000.00000 0 -10061269.873 3824997.144 23170143.174 10 0 60653 72900.00000 0 -10976055.901 1134302.398 23036057.513 10 0 60653 73800.00000 0 -12071616.403 -1441343.713 22456422.510 10 0 60653 74700.00000 0 -13312185.098 -3841707.038 21442114.796 10 0 60653 75600.00000 0 -14652355.921 -6014451.643 20012416.727 10 0 60653 76500.00000 0 -16038927.118 -7917076.727 18194675.163 10 0 60653 77400.00000 0 -17413095.920 -9518447.726 16023804.230 10 0 60653 78300.00000 0 -18712914.451 -10799857.115 13541638.897 10 0 60653 79200.00000 0 -19875905.680 -11755569.270 10796149.154 10 0 60653 80100.00000 0 -20841730.275 -12392824.795 7840527.818 10 0 60653 81000.00000 0 -21554791.880 -12731302.288 4732167.952 10 0 60653 81900.00000 0 -21966669.591 -12802058.554 1531548.864 10 0 60653 82800.00000 0 -22038272.724 -12645990.727 -1698947.701 10 0 60653 83700.00000 0 -21741623.837 -12311884.865 -4896267.328 10 0 60653 84600.00000 0 -21061191.357 -11854133.941 -7997933.186 10 0 60653 85500.00000 0 -19994712.133 -11330223.138 -10943290.201 10 0 60654 0.00000 0 -18553466.395 -10798091.132 -13674716.104 10 0 60654 900.00000 0 -16761990.339 -10313481.521 -16138774.495 10 0 60654 1800.00000 0 -14657239.071 -9927400.292 -18287281.207 10 0 60654 2700.00000 0 -12287232.102 -9683788.980 -20078265.811 10 0 60654 3600.00000 0 -9709240.587 -9617515.280 -21476804.099 10 0 60654 4500.00000 0 -6987592.864 -9752767.819 -22455705.666 10 0 60654 5400.00000 0 -4191191.983 -10101924.106 -22996042.589 10 0 60654 6300.00000 0 -1390850.879 -10664939.791 -23087509.136 10 0 60654 7200.00000 0 1343441.806 -11429284.403 -22728606.367 10 0 60654 8100.00000 0 3945209.949 -12370424.971 -21926649.426 10 0 60654 9000.00000 0 6354019.665 -13452835.288 -20697599.122 10 0 60654 9900.00000 0 8517745.400 -14631486.131 -19065723.026 10 0 60654 10800.00000 0 10394479.316 -15853751.460 -17063094.789 10 0 60654 11700.00000 0 11954006.579 -17061648.377 -14728943.389 10 0 60654 12600.00000 0 13178788.019 -18194314.977 -12108866.881 10 0 60654 13500.00000 0 14064412.716 -19190620.851 -9253927.538 10 0 60654 14400.00000 0 14619505.476 -19991800.123 -6219647.237 10 0 60654 15300.00000 0 14865096.930 -20543996.674 -3064923.524 10 0 60654 16200.00000 0 14833486.184 -20800615.577 149112.171 10 0 60654 17100.00000 0 14566646.662 -20724383.474 3360272.085 10 0 60654 18000.00000 0 14114244.179 -20289033.201 6506503.087 10 0 60654 18900.00000 0 13531351.685 -19480543.890 9527069.032 10 0 60654 19800.00000 0 12875956.896 -18297886.273 12363703.054 10 0 60654 20700.00000 0 12206366.870 -16753243.279 14961709.297 10 0 60654 21600.00000 0 11578617.174 -14871697.324 17270994.862 10 0 60654 22500.00000 0 11043992.534 -12690397.170 19247014.216 10 0 60654 23400.00000 0 10646761.045 -10257238.068 20851609.955 10 0 60654 24300.00000 0 10422215.018 -7629108.229 22053735.596 10 0 60654 25200.00000 0 10395099.204 -4869771.920 22830048.001 10 0 60654 26100.00000 0 10578491.476 -2047473.987 23165358.971 10 0 60654 27000.00000 0 10973182.965 767638.180 23052937.602 10 0 60654 27900.00000 0 11567584.673 3506171.651 22494657.178 10 0 60654 28800.00000 0 12338166.347 6102116.659 21500982.626 10 0 60654 29700.00000 0 13250411.867 8495340.322 20090796.942 10 0 60654 30600.00000 0 14260254.093 10633843.338 18291067.617 10 0 60654 31500.00000 0 15315932.127 12475686.444 16136356.794 10 0 60654 32400.00000 0 16360195.830 13990506.094 13668181.845 10 0 60654 33300.00000 0 17332767.155 15160555.042 10934236.020 10 0 60654 34200.00000 0 18172956.042 15981222.625 7987482.030 10 0 60654 35100.00000 0 18822320.886 16461010.992 4885134.422 10 0 60654 36000.00000 0 19227260.500 16620966.358 1687549.549 10 0 60654 36900.00000 0 19341426.195 16493587.648 -1542955.327 10 0 60654 37800.00000 0 19127849.283 16121257.603 -4743330.098 10 0 60654 38700.00000 0 18560690.767 15554262.470 -7851041.609 10 0 60654 39600.00000 0 17626535.728 14848484.746 -10805318.677 10 0 60654 40500.00000 0 16325174.378 14062868.201 -13548365.521 10 0 60654 41400.00000 0 14669833.933 13256764.749 -16026517.306 10 0 60654 42300.00000 0 12686849.467 12487278.185 -18191312.591 10 0 60654 43200.00000 0 10414786.404 11806720.045 -20000459.548 10 0 60654 44100.00000 0 7903051.309 11260287.811 -21418675.354 10 0 60654 45000.00000 0 5210049.920 10884065.751 -22418381.206 10 0 60654 45900.00000 0 2400970.850 10703434.248 -22980239.008 10 0 60654 46800.00000 0 -454710.689 10731955.234 -23093519.496 10 0 60654 47700.00000 0 -3285903.123 10970780.404 -22756295.450 10 0 60654 48600.00000 0 -6022629.845 11408605.861 -21975457.611 10 0 60654 49500.00000 0 -8598706.878 12022173.209 -20766554.724 10 0 60654 50400.00000 0 -10954255.051 12777293.584 -19153462.755 10 0 60654 51300.00000 0 -13037942.758 13630348.920 -17167891.831 10 0 60654 52200.00000 0 -14808867.442 14530204.722 -14848742.462 10 0 60654 53100.00000 0 -16237999.776 15420451.622 -12241325.486 10 0 60654 54000.00000 0 -17309133.408 16241879.698 -9396462.509 10 0 60654 54900.00000 0 -18019304.206 16935080.380 -6369485.605 10 0 60654 55800.00000 0 -18378665.169 17443066.161 -3219156.649 10 0 60654 56700.00000 0 -18409825.896 17713798.305 -6527.715 10 0 60654 57600.00000 0 -18146687.459 17702517.290 3206235.385 10 0 60654 58500.00000 0 -17632824.037 17373779.507 6357044.060 10 0 60654 59400.00000 0 -16919480.885 16703116.381 9385070.316 10 0 60654 60300.00000 0 -16063273.347 15678247.976 12231901.093 10 0 60654 61200.00000 0 -15123683.243 14299801.617 14842642.944 10 0 60654 62100.00000 0 -14160456.623 12581506.293 17166957.797 10 0 60654 63000.00000 0 -13231010.283 10549854.820 19160011.984 10 0 60654 63900.00000 0 -12387953.702 8243247.148 20783322.295 10 0 60654 64800.00000 0 -11676828.039 5710648.881 22005484.721 10 0 60654 65700.00000 0 -11134154.934 3009818.386 22802773.345 10 0 60654 66600.00000 0 -10785875.397 205173.139 23159598.870 10 0 60654 67500.00000 0 -10646243.429 -2634619.573 23068818.247 10 0 60654 68400.00000 0 -10717220.882 -5439231.192 22531889.125 10 0 60654 69300.00000 0 -10988400.004 -8139335.574 21558864.975 10 0 60654 70200.00000 0 -11437458.766 -10669240.109 20168229.252 10 0 60654 71100.00000 0 -12031132.430 -12969377.062 18386569.429 10 0 60654 72000.00000 0 -12726663.340 -14988552.679 16248094.567 10 0 60654 72900.00000 0 -13473670.849 -16685860.543 13794002.910 10 0 60654 73800.00000 0 -14216365.087 -18032178.640 11071709.043 10 0 60654 74700.00000 0 -14896013.024 -19011186.018 8133943.311 10 0 60654 75600.00000 0 -15453553.561 -19619854.482 5037739.188 10 0 60654 76500.00000 0 -15832250.895 -19868392.550 1843327.300 10 0 60654 77400.00000 0 -15980272.589 -19779642.006 -1387042.547 10 0 60654 78300.00000 0 -15853080.929 -19387951.043 -4590327.667 10 0 60654 79200.00000 0 -15415533.285 -18737570.709 -7703941.814 10 0 60654 80100.00000 0 -14643599.102 -17880642.566 -10667000.996 10 0 60654 81000.00000 0 -13525617.356 -16874863.578 -13421539.007 10 0 60654 81900.00000 0 -12063038.097 -15780928.794 -15913666.300 10 0 60654 82800.00000 0 -10270614.132 -14659862.319 -18094646.959 10 0 60654 83700.00000 0 -8176032.968 -13570352.112 -19921870.512 10 0 60654 84600.00000 0 -5819003.597 -12566203.809 -21359697.840 10 0 60654 85500.00000 0 -3249836.515 -11694023.398 -22380163.528 10 0 60655 0.00000 0 -527577.544 -10991228.185 -22963520.456 10 0 60655 900.00000 0 2282226.583 -10484470.382 -23098616.469 10 0 60655 1800.00000 0 5110032.182 -10188540.472 -22783095.907 10 0 60655 2700.00000 0 7884970.877 -10105794.237 -22023424.438 10 0 60655 3600.00000 0 10537573.882 -10226126.647 -20834737.532 10 0 60655 4500.00000 0 13002435.492 -10527490.788 -19240517.877 10 0 60655 5400.00000 0 15220704.666 -10976937.211 -17272109.979 10 0 60655 6300.00000 0 17142301.827 -11532126.970 -14968083.400 10 0 60655 7200.00000 0 18727770.233 -12143251.920 -12373458.933 10 0 60655 8100.00000 0 19949687.251 -12755279.064 -9538814.390 10 0 60655 9000.00000 0 20793579.762 -13310422.765 -6519288.679 10 0 60655 9900.00000 0 21258308.881 -13750739.734 -3373504.489 10 0 60655 10800.00000 0 21355911.443 -14020737.312 -162430.982 10 0 60655 11700.00000 0 21110908.165 -14069885.800 3051791.458 10 0 60655 12600.00000 0 20559110.221 -13854930.188 6207042.048 10 0 60655 13500.00000 0 19745976.271 -13341905.575 9242403.920 10 0 60655 14400.00000 0 18724589.934 -12507773.242 12099320.381 10 0 60655 15300.00000 0 17553342.688 -11341610.155 14722702.515 10 0 60655 16200.00000 0 16293418.567 -9845303.164 17061968.739 10 0 60655 17100.00000 0 15006184.517 -8033719.227 19071998.436 10 0 60655 18000.00000 0 13750593.662 -5934344.212 20713983.354 10 0 60655 18900.00000 0 12580707.799 -3586404.044 21956162.307 10 0 60655 19800.00000 0 11543440.450 -1039502.687 22774426.592 10 0 60655 20700.00000 0 10676612.900 1648169.248 23152785.453 10 0 60655 21600.00000 0 10007403.096 4411984.235 23083683.047 10 0 60655 22500.00000 0 9551251.668 7183300.315 22568160.444 10 0 60655 23400.00000 0 9311271.107 9892059.325 21615858.478 10 0 60655 24300.00000 0 9278183.959 12469456.212 20244859.643 10 0 60655 25200.00000 0 9430794.466 14850571.068 18481369.808 10 0 60655 26100.00000 0 9736976.231 16976856.071 16359243.186 10 0 60655 27000.00000 0 10155136.959 18798374.376 13919356.993 10 0 60655 27900.00000 0 10636101.031 20275697.224 11208845.120 10 0 60655 28800.00000 0 11125332.535 21381378.687 8280203.389 10 0 60655 29700.00000 0 11565406.037 22100944.368 5190281.947 10 0 60655 30600.00000 0 11898620.922 22433350.287 1999183.340 10 0 60655 31500.00000 0 12069647.792 22390890.329 -1230912.469 10 0 60655 32400.00000 0 12028093.029 21998554.157 -4436972.605 10 0 60655 33300.00000 0 11730870.147 21292861.283 -7556360.046 10 0 60655 34200.00000 0 11144274.194 20320219.928 -10528080.187 10 0 60655 35100.00000 0 10245667.807 19134880.331 -13293998.412 10 0 60655 36000.00000 0 9024704.111 17796570.163 -15800002.290 10 0 60655 36900.00000 0 7484031.752 16367913.891 -17997083.052 10 0 60655 37800.00000 0 5639449.983 14911747.453 -19842313.003 10 0 60655 38700.00000 0 3519505.740 13488444.111 -21299697.969 10 0 60655 39600.00000 0 1164549.136 12153366.648 -22340886.971 10 0 60655 40500.00000 0 -1374712.731 10954555.092 -22945724.772 10 0 60655 41400.00000 0 -4039102.091 9930748.462 -23102636.709 10 0 60655 42300.00000 0 -6763216.556 9109823.932 -22808839.098 10 0 60655 43200.00000 0 -9477939.499 8507718.261 -22070372.408 10 0 60655 44100.00000 0 -12113108.546 8127875.131 -20901958.289 10 0 60655 45000.00000 0 -14600229.774 7961239.120 -19326685.126 10 0 60655 45900.00000 0 -16875124.049 7986793.551 -17375530.342 10 0 60655 46800.00000 0 -18880395.483 8172616.317 -15086730.718 10 0 60655 47700.00000 0 -20567620.214 8477406.009 -12505014.875 10 0 60655 48600.00000 0 -21899166.105 8852411.193 -9680714.513 10 0 60655 49500.00000 0 -22849569.989 9243679.232 -6668772.955 10 0 60655 50400.00000 0 -23406417.948 9594528.259 -3527671.262 10 0 60655 51300.00000 0 -23570695.094 9848137.322 -318293.253 10 0 60655 52200.00000 0 -23356593.409 9950145.517 2897248.508 10 0 60655 53100.00000 0 -22790788.548 9851151.326 6056803.405 10 0 60655 54000.00000 0 -21911218.143 9509008.122 9099368.001 10 0 60655 54900.00000 0 -20765414.233 8890820.814 11966244.237 10 0 60655 55800.00000 0 -19408460.235 7974561.269 14602149.923 10 0 60655 56700.00000 0 -17900657.596 6750236.002 16956262.047 10 0 60655 57600.00000 0 -16304998.549 5220557.974 18983174.978 10 0 60655 58500.00000 0 -14684548.742 3401094.440 20643757.143 10 0 60655 59400.00000 0 -13099846.777 1319883.842 21905891.648 10 0 60655 60300.00000 0 -11606426.735 -983464.016 22745088.158 10 0 60655 61200.00000 0 -10252564.774 -3459149.557 23144955.307 10 0 60655 62100.00000 0 -9077341.893 -6048992.548 23097524.942 10 0 60655 63000.00000 0 -8109102.455 -8688597.196 22603421.698 10 0 60655 63900.00000 0 -7364372.359 -11309786.942 21671873.556 10 0 60655 64800.00000 0 -6847282.467 -13843211.310 20320561.501 10 0 60655 65700.00000 0 -6549522.568 -16221019.379 18575308.879 10 0 60655 66600.00000 0 -6450829.626 -18379490.743 16469613.825 10 0 60655 67500.00000 0 -6519992.016 -20261515.491 14044030.969 10 0 60655 68400.00000 0 -6716329.767 -21818819.807 11345411.672 10 0 60655 69300.00000 0 -6991590.478 -23013843.191 8426015.163 10 0 60655 70200.00000 0 -7292182.327 -23821186.942 5342505.997 10 0 60655 71100.00000 0 -7561650.423 -24228570.773 2154856.219 10 0 60655 72000.00000 0 -7743291.328 -24237254.776 -1074826.599 10 0 60655 72900.00000 0 -7782793.650 -23861906.550 -4283522.054 10 0 60655 73800.00000 0 -7630790.473 -23129917.067 -7408545.110 10 0 60655 74700.00000 0 -7245212.440 -22080192.924 -10388793.386 10 0 60655 75600.00000 0 -6593338.317 -20761475.536 -13165966.743 10 0 60655 76500.00000 0 -5653452.689 -19230258.808 -15685732.725 10 0 60655 77400.00000 0 -4416037.352 -17548394.545 -17898812.466 10 0 60655 78300.00000 0 -2884443.380 -15780488.636 -19761963.582 10 0 60655 79200.00000 0 -1075013.483 -13991200.129 -21238839.058 10 0 60655 80100.00000 0 983351.514 -12242559.333 -22300704.145 10 0 60655 81000.00000 0 3250164.100 -10591419.816 -22926996.753 10 0 60655 81900.00000 0 5674818.074 -9087152.834 -23105720.580 10 0 60655 82800.00000 0 8198490.403 -7769681.598 -22833664.073 10 0 60655 83700.00000 0 10756395.895 -6667937.495 -22116442.223 10 0 60655 84600.00000 0 13280298.881 -5798801.638 -20968362.074 10 0 60655 85500.00000 0 15701175.655 -5166573.883 -19412116.478 99